Flag for U.S.A. Weather past 2 weeks in Newark, New Jersey, U.S.A.

Now
73 °F

Broken clouds.


Feels Like: 72 °F
Forecast: 69 / 85 °F
Wind: 5 mph from Southwest

Location: Newark International Airport

Current Time: May 27, 2015 at 9:55:18 PM

Latest Report: May 27, 2015 at 8:51 PM


Visibility: 10 mi

Pressure: 30.13 "Hg

Humidity: 84%

Dew point: 68 °F

Location of NewarkLocation

Historic Weather in Newark — Graph

°F

Newark temperature yesterday

Maximum temperature yesterday: 91 °F (at 2:51 PM)
Minimum temperature yesterday: 66 °F (at 5:51 AM)
Average temperature yesterday: 78 °F

Past Weeks' High & Low Weather Summary

 TemperatureHumidityPressure
High91 °F (May 26, 2:51 PM)98% (May 17, 3:51 AM)30.42 "Hg (May 17, 3:51 AM)
Low49 °F (May 23, 5:51 AM)14% (May 14, 3:51 PM)29.76 "Hg (May 19, 9:51 PM)
Average67 °F54%30.12 "Hg
* Reported May 12 8:51 PM — May 27 8:51 PM, Newark, Weather by CustomWeather, © 2015

Note: Actual official high and low records may vary slightly from our data, if they occured in-between our weather recording intervals... More about our weather records

Advertising

Newark weather history for previous 24 hours

 ConditionsComfort  
Time TempWeatherWind HumidityBarometerVisibility
8:51 PM
Wed, May 27
73 °FBroken clouds.5 mph84%30.13 "Hg10 mi
7:51 PM73 °FLight rain. Cloudy.8 mph81%30.12 "Hg10 mi
6:51 PM77 °FThunderstorms. Cloudy.5 mph74%30.08 "Hg10 mi
6:03 PM84 °FScattered clouds.15 mph58%30.04 "Hg10 mi
5:00 PM84 °FScattered clouds.14 mph58%30.06 "Hg10 mi
3:51 PM85 °FScattered clouds.8 mph51%30.08 "Hg10 mi
2:51 PM83 °FScattered clouds.13 mph61%30.09 "Hg10 mi
1:51 PM82 °FPartly sunny.9 mph60%30.12 "Hg10 mi
12:51 PM84 °FBroken clouds.7 mph61%30.14 "Hg10 mi
11:51 AM80 °FOvercast.10 mph69%30.16 "Hg10 mi
10:51 AM80 °FPartly sunny.16 mph64%30.17 "Hg10 mi
9:51 AM79 °FPartly sunny.10 mph69%30.16 "Hg10 mi
8:51 AM75 °FOvercast.9 mph76%30.17 "Hg10 mi
7:51 AM73 °FMostly cloudy.7 mph79%30.16 "Hg10 mi
6:51 AM71 °FPartly sunny.8 mph84%30.16 "Hg10 mi
5:51 AM70 °FPassing clouds.9 mph84%30.16 "Hg10 mi
4:51 AM70 °FPartly cloudy.9 mph81%30.15 "Hg10 mi
3:51 AM70 °FPassing clouds.8 mph81%30.14 "Hg10 mi
2:51 AM70 °FPartly cloudy.9 mph79%30.15 "Hg10 mi
1:51 AM72 °FMostly cloudy.12 mph71%30.15 "Hg10 mi
12:51 AM72 °FMostly cloudy.12 mph71%30.16 "Hg10 mi
11:51 PM
Tue, May 26
74 °FPartly cloudy.16 mph69%30.16 "Hg10 mi
10:51 PM75 °FPassing clouds.16 mph64%30.16 "Hg10 mi
9:51 PM76 °FPassing clouds.16 mph62%30.14 "Hg10 mi
Weather by CustomWeather, © 2015

See weather overviewHow to use our weather pages